#timestamp,LO_Frequency,Hit,StdDev 
1622239215.7,286047000.5,N
1622239235.5,286047000.0,N
1622239255.4,286047002.6,N
1622239275.2,286047002.2,N
1622239295.0,286047000.3,N
1622239295.9,286047000.3,N
1622239315.8,286047002.7,N
1622239335.6,286047004.1,N
1622239355.5,286047004.4,N
1622239375.3,286047000.6,N
1622239395.1,286047000.5,N
1622239415.9,286047002.5,N
1622239435.7,286047000.9,N
1622239455.5,286047000.7,N
1622239475.4,286047000.4,N
1622239495.2,286047000.3,N
1622239515.1,286047002.2,N
1622239516.0,286047002.2,N
1622239535.8,286047002.6,N
1622239555.6,286046999.8,N
1622239575.5,286047004.0,N
1622239595.3,286047003.8,N
1622239615.2,286047003.7,N
1622239635.9,286047000.1,N
1622239655.7,286047002.2,N
1622239675.6,286047002.0,N
1622239695.4,286047002.7,N
1622239715.2,286046999.3,N
1622239735.1,286046998.6,N
1622239736.0,286047011.9,Y
1622239755.8,286046998.2,P
1622239775.7,286046998.4,N
1622239795.5,286047001.1,N
1622239815.3,286046998.1,N
1622239835.2,286046997.8,N
1622239855.0,286046997.5,N
1622239855.9,286046997.5,N
1622239875.8,286046999.2,N
1622239895.6,286046996.6,N
1622239915.4,286046999.2,N
1622239935.3,286046995.8,N
1622239955.1,286046997.3,N
1622239975.9,286046998.3,N
1622239995.7,286046998.9,N
1622240015.5,286046998.9,N
1622240035.4,286046998.8,N
1622240055.2,286046998.1,N
1622240075.0,286046997.1,N
1622240075.9,286046997.1,N
1622240095.8,286046998.8,N
1622240115.6,286046999.8,N
1622240135.5,286047000.0,N
1622240155.3,286047000.7,N
1622240175.1,286046998.1,N
1622240195.9,286047000.5,N
1622240215.7,286046998.4,N
1622240235.5,286046998.1,N
1622240255.4,286046998.5,N
1622240275.2,286046998.4,N
1622240295.0,286047001.0,N
1622240296.0,286047001.0,N
1622240315.8,286047000.1,N
1622240335.6,286047001.6,N
1622240355.5,286046999.8,N
1622240375.3,286046998.9,N
1622240395.1,286046999.0,N
1622240415.9,286047011.9,Y
1622240435.7,286047001.2,P
1622240455.6,286047002.8,N
1622240475.4,286047002.6,N
1622240495.2,286046999.4,N
1622240515.1,286046997.9,N
1622240516.0,286046997.9,N
1622240535.8,286046997.7,N
1622240555.6,286046995.4,N
1622240575.5,286046993.8,N
1622240595.3,286046994.5,N
1622240615.2,286046996.3,N
1622240635.9,286046996.4,N
1622240655.7,286046996.2,N
1622240675.6,286046997.9,N
1622240695.4,286046997.6,N
1622240715.2,286046997.4,N
1622240735.1,286046997.1,N
1622240736.0,286046997.1,N
1622240755.8,286046997.9,N
1622240775.7,286046995.7,N
1622240795.5,286046996.5,N
1622240815.3,286046997.8,N
1622240835.2,286046998.0,N
1622240855.0,286046998.0,N
1622240855.9,286046998.0,N
1622240875.8,286046995.3,N
1622240895.6,286046994.3,N
1622240915.4,286046991.9,Y
1622240935.3,286046997.3,P
1622240955.1,286046994.9,P
1622240975.8,286046997.6,N
1622240995.7,286046996.8,N
1622241015.5,286046995.6,Y
1622241035.4,286046999.0,P
1622241055.2,286046998.8,N
1622241075.0,286046998.3,N
1622241075.9,286046998.3,N
1622241095.8,286046998.1,N
1622241115.6,286046998.6,N
1622241135.4,286047000.8,N
1622241155.3,286047000.0,N
1622241175.1,286047000.4,N
1622241195.9,286046998.7,N
1622241215.7,286046999.0,N
1622241235.6,286046994.9,Y
1622241255.4,286046997.6,P
1622241275.2,286046997.9,P
1622241295.1,286046998.0,P
1622241296.0,286046998.0,Y
1622241315.8,286046996.9,P
1622241335.6,286047000.7,N
1622241355.5,286046998.9,N
1622241375.3,286046998.4,N
1622241395.2,286046998.3,N
1622241415.9,286046998.1,N
1622241435.7,286046999.8,N
1622241455.6,286047001.1,N
1622241475.4,286046996.9,N
1622241495.2,286046995.4,Y
1622241515.1,286046999.6,P
1622241516.0,286046999.6,N
1622241535.8,286046996.9,P
1622241555.7,286046998.7,N
1622241575.5,286046999.2,N
1622241595.3,286046998.9,N
1622241615.2,286047000.7,N
1622241635.0,286047000.0,N
1622241635.9,286047000.0,N
1622241655.7,286047002.7,N
1622241675.6,286047004.1,N
1622241695.4,286047005.8,Y
1622241715.3,286047004.8,P
1622241735.1,286047005.2,N
1622241755.8,286047005.4,N
1622241775.7,286047004.9,N
1622241795.5,286047004.7,N
1622241815.4,286047003.3,N
1622241835.2,286047005.6,Y
1622241855.0,286047001.1,P
1622241855.9,286047001.1,N
1622241875.8,286046998.8,N
1622241895.6,286046999.6,N
1622241915.4,286046999.2,N
1622241935.3,286046999.8,N
1622241955.1,286047000.4,N
1622241975.9,286046998.1,N
1622241995.7,286046999.0,N
1622242015.5,286047000.8,N
1622242035.4,286046998.3,N
1622242055.2,286047002.1,N
1622242075.1,286047002.3,N
1622242076.0,286047002.3,N
1622242095.8,286047002.6,N
1622242115.6,286047000.1,N
1622242135.5,286047001.8,N
1622242155.3,286047003.3,N
1622242175.1,286047005.9,Y
1622242195.9,286047004.7,P
1622242215.7,286047006.0,P
1622242235.6,286047002.3,N
1622242255.4,286047002.4,N
1622242275.2,286047001.9,N
1622242295.1,286047001.9,N
1622242296.0,286047001.9,N
1622242315.8,286047003.8,N
1622242335.6,286047003.6,N
1622242355.5,286047003.8,N
1622242375.3,286047004.1,N
1622242395.2,286047002.5,N
1622242415.9,286047001.9,N
1622242435.7,286046999.7,N
1622242455.6,286047000.1,N
1622242475.4,286047002.8,N
1622242495.3,286047000.2,N
1622242515.2,286047002.6,N
1622242535.9,286047002.0,N
1622242555.7,286047001.7,N
1622242575.6,286047001.9,N
1622242595.4,286047000.4,N
1622242615.2,286047002.8,N
1622242635.1,286047002.6,N
1622242636.0,286047002.6,N
1622242655.8,286047003.9,N
1622242675.7,286047005.5,Y
1622242695.5,286047001.3,P
1622242715.3,286047003.7,P
1622242735.2,286047001.9,N
1622242755.0,286047001.5,N
1622242755.9,286047001.5,N
1622242775.8,286047003.5,Y
1622242795.6,286047002.2,P
